User: anonymous
Location: Pella
(41.4080°N, 92.9160°W)
Time: 04:23:18
(UTC-05:00)
Language:

Iridium 91 - Orbit

View from above orbital plane
View from above orbital plane
View from above satellite
View from above satellite

Ground track
Ground track

The orbit data is extracted from the following two-line orbital elements,

1 27372U 02005A   14107.42206875  .00000540  00000-0  18584-3 0  2895
2 27372 086.4001 051.1837 0003791 085.5779 053.8137 14.34218683645820
Epoch (UTC): 17 April 2014 10:07:46
Eccentricity: 0.0003791
inclination: 86.4001°
perigee height: 775 km
apogee height: 780 km
right ascension of ascending node: 51.1837°
argument of perigee: 85.5779°
revolutions per day: 14.34218683
mean anomaly at epoch: 53.8137°
orbit number at epoch: 64582

The dashed part of the orbit path shows where the satellite is in the earth's shadow,  

DLR